TimeEST,TemperatureF,Dew PointF,Humidity,Sea Level PressureIn,VisibilityMPH,Wind Direction,Wind SpeedMPH,Gust SpeedMPH,PrecipitationIn,Events,Conditions,WindDirDegrees,DateUTC
12:15 AM,37.0,28.0,70,30.46,10.0,Calm,Calm,-,N/A,,Clear,0,2012-11-18 05:15:00
12:35 AM,37.0,27.7,69,30.46,10.0,Calm,Calm,-,N/A,,Clear,0,2012-11-18 05:35:00
12:55 AM,34.9,26.6,72,30.46,10.0,Calm,Calm,-,N/A,,Clear,0,2012-11-18 05:55:00
1:15 AM,33.4,27.3,78,30.45,10.0,Calm,Calm,-,N/A,,Clear,0,2012-11-18 06:15:00
1:35 AM,34.5,26.8,73,30.45,10.0,Calm,Calm,-,N/A,,Clear,0,2012-11-18 06:35:00
1:55 AM,31.3,25.2,78,30.44,10.0,ESE,3.5,-,N/A,,Clear,110,2012-11-18 06:55:00
2:15 AM,31.5,26.2,81,30.44,10.0,ESE,3.5,-,N/A,,Clear,110,2012-11-18 07:15:00
2:35 AM,33.3,27.1,78,30.44,10.0,ESE,3.5,-,N/A,,Clear,120,2012-11-18 07:35:00
2:55 AM,34.0,26.6,74,30.44,10.0,Calm,Calm,-,N/A,,Clear,0,2012-11-18 07:55:00
3:15 AM,32.0,25.7,78,30.44,10.0,Calm,Calm,-,N/A,,Clear,0,2012-11-18 08:15:00
3:35 AM,30.9,25.3,80,30.44,10.0,ESE,3.5,-,N/A,,Clear,110,2012-11-18 08:35:00
3:55 AM,33.8,26.2,74,30.44,10.0,Calm,Calm,-,N/A,,Clear,0,2012-11-18 08:55:00
4:15 AM,34.5,26.6,73,30.43,10.0,Calm,Calm,-,N/A,,Clear,0,2012-11-18 09:15:00
4:35 AM,31.8,24.4,74,30.44,10.0,Calm,Calm,-,N/A,,Clear,0,2012-11-18 09:35:00
4:55 AM,30.4,25.2,81,30.44,10.0,East,3.5,-,N/A,,Clear,80,2012-11-18 09:55:00
5:15 AM,30.9,25.3,80,30.44,10.0,Calm,Calm,-,N/A,,Clear,0,2012-11-18 10:15:00
5:35 AM,30.9,24.6,77,30.44,10.0,Calm,Calm,-,N/A,,Clear,0,2012-11-18 10:35:00
5:55 AM,29.1,23.9,81,30.44,10.0,Calm,Calm,-,N/A,,Clear,0,2012-11-18 10:55:00
6:15 AM,28.9,24.1,82,30.44,10.0,Calm,Calm,-,N/A,,Clear,0,2012-11-18 11:15:00
6:35 AM,31.5,26.1,80,30.44,10.0,Calm,Calm,-,N/A,,Clear,0,2012-11-18 11:35:00
6:55 AM,28.4,23.9,83,30.44,10.0,Calm,Calm,-,N/A,,Clear,0,2012-11-18 11:55:00
7:15 AM,29.5,24.4,81,30.44,10.0,Calm,Calm,-,N/A,,Clear,0,2012-11-18 12:15:00
7:35 AM,28.9,24.3,83,30.45,10.0,Calm,Calm,-,N/A,,Clear,0,2012-11-18 12:35:00
7:55 AM,30.2,25.7,83,30.45,10.0,Calm,Calm,-,N/A,,Clear,0,2012-11-18 12:55:00
8:15 AM,29.7,25.0,83,30.44,10.0,Calm,Calm,-,N/A,,Clear,0,2012-11-18 13:15:00
8:35 AM,32.2,28.2,85,30.45,10.0,Calm,Calm,-,N/A,,Clear,0,2012-11-18 13:35:00
8:55 AM,36.1,30.6,80,30.45,10.0,Calm,Calm,-,N/A,,Clear,0,2012-11-18 13:55:00
9:15 AM,39.7,30.6,70,30.45,10.0,East,3.5,-,N/A,,Clear,90,2012-11-18 14:15:00
9:35 AM,41.5,30.6,65,30.45,10.0,East,3.5,-,N/A,,Clear,100,2012-11-18 14:35:00
9:55 AM,43.2,30.9,62,30.45,10.0,East,3.5,-,N/A,,Clear,90,2012-11-18 14:55:00
10:15 AM,45.0,31.3,59,30.46,10.0,ESE,4.6,-,N/A,,Clear,110,2012-11-18 15:15:00
10:35 AM,46.8,31.3,55,30.46,10.0,Calm,Calm,-,N/A,,Clear,0,2012-11-18 15:35:00
10:55 AM,48.6,30.9,51,30.46,10.0,Calm,Calm,-,N/A,,Clear,0,2012-11-18 15:55:00
11:15 AM,48.7,29.3,47,30.45,10.0,Calm,Calm,-,N/A,,Clear,0,2012-11-18 16:15:00
11:35 AM,51.1,30.0,44,30.45,10.0,Calm,Calm,-,N/A,,Clear,0,2012-11-18 16:35:00
11:55 AM,52.2,30.7,44,30.43,10.0,East,3.5,-,N/A,,Clear,90,2012-11-18 16:55:00
12:15 PM,53.2,30.7,42,30.43,10.0,East,4.6,-,N/A,,Clear,100,2012-11-18 17:15:00
12:35 PM,54.7,30.7,40,30.42,10.0,East,3.5,-,N/A,,Clear,90,2012-11-18 17:35:00
12:55 PM,55.4,30.2,38,30.41,7.0,Calm,Calm,-,N/A,,Clear,0,2012-11-18 17:55:00
1:15 PM,56.3,30.2,37,30.40,10.0,ESE,3.5,-,N/A,,Clear,120,2012-11-18 18:15:00
1:35 PM,58.1,29.7,34,30.39,10.0,East,4.6,-,N/A,,Clear,90,2012-11-18 18:35:00
1:55 PM,58.1,29.5,34,30.38,10.0,East,4.6,-,N/A,,Clear,90,2012-11-18 18:55:00
2:15 PM,58.3,28.2,32,30.38,10.0,ESE,5.8,-,N/A,,Clear,110,2012-11-18 19:15:00
2:35 PM,58.6,26.6,29,30.37,10.0,East,4.6,-,N/A,,Clear,100,2012-11-18 19:35:00
2:55 PM,59.0,28.0,31,30.37,10.0,East,4.6,-,N/A,,Clear,100,2012-11-18 19:55:00
3:15 PM,59.0,27.9,31,30.36,10.0,East,3.5,-,N/A,,Clear,100,2012-11-18 20:15:00
3:35 PM,59.2,27.5,30,30.36,10.0,ESE,5.8,-,N/A,,Clear,110,2012-11-18 20:35:00
3:55 PM,59.0,27.0,29,30.36,10.0,ESE,6.9,-,N/A,,Clear,120,2012-11-18 20:55:00
4:15 PM,58.6,27.5,30,30.36,10.0,SE,5.8,-,N/A,,Clear,130,2012-11-18 21:15:00
4:35 PM,57.7,28.9,33,30.36,10.0,ESE,3.5,-,N/A,,Clear,110,2012-11-18 21:35:00
4:55 PM,55.0,29.7,38,30.36,10.0,East,3.5,-,N/A,,Clear,100,2012-11-18 21:55:00
5:15 PM,53.6,29.3,39,30.36,10.0,ESE,3.5,-,N/A,,Clear,110,2012-11-18 22:15:00
5:55 PM,49.5,28.4,44,30.36,10.0,East,3.5,-,N/A,,Clear,100,2012-11-18 22:55:00
6:15 PM,48.9,27.9,44,30.37,10.0,Calm,Calm,-,N/A,,Clear,0,2012-11-18 23:15:00
6:35 PM,42.3,28.4,58,30.37,10.0,Calm,Calm,-,N/A,,Clear,0,2012-11-18 23:35:00
6:55 PM,42.1,28.9,60,30.37,10.0,Calm,Calm,-,N/A,,Clear,0,2012-11-18 23:55:00
7:15 PM,42.6,28.8,58,30.38,10.0,Calm,Calm,-,N/A,,Clear,0,2012-11-19 00:15:00
7:35 PM,39.0,29.3,68,30.38,10.0,Calm,Calm,-,N/A,,Clear,0,2012-11-19 00:35:00
7:55 PM,38.3,28.4,68,30.39,10.0,Calm,Calm,-,N/A,,Clear,0,2012-11-19 00:55:00
8:15 PM,35.6,28.2,75,30.39,7.0,Calm,Calm,-,N/A,,Clear,0,2012-11-19 01:15:00
8:35 PM,37.2,28.6,71,30.38,10.0,ESE,4.6,-,N/A,,Clear,120,2012-11-19 01:35:00
8:55 PM,39.0,28.2,65,30.38,10.0,ESE,4.6,-,N/A,,Clear,120,2012-11-19 01:55:00
9:15 PM,40.3,27.5,60,30.38,10.0,ESE,4.6,-,N/A,,Clear,120,2012-11-19 02:15:00
9:35 PM,39.7,26.6,59,30.38,10.0,ESE,3.5,-,N/A,,Clear,120,2012-11-19 02:35:00
9:55 PM,40.6,26.6,57,30.38,10.0,Calm,Calm,-,N/A,,Clear,0,2012-11-19 02:55:00
10:15 PM,37.6,26.2,64,30.38,10.0,ESE,3.5,-,N/A,,Clear,120,2012-11-19 03:15:00
10:35 PM,38.7,26.4,61,30.38,10.0,ESE,3.5,-,N/A,,Clear,120,2012-11-19 03:35:00
10:55 PM,39.6,26.2,59,30.37,10.0,Calm,Calm,-,N/A,,Clear,0,2012-11-19 03:55:00
11:15 PM,37.9,26.1,62,30.37,10.0,Calm,Calm,-,N/A,,Clear,0,2012-11-19 04:15:00
11:35 PM,37.0,26.4,65,30.37,10.0,Calm,Calm,-,N/A,,Clear,0,2012-11-19 04:35:00
11:55 PM,35.1,26.1,70,30.37,10.0,Calm,Calm,-,N/A,,Clear,0,2012-11-19 04:55:00